20050715,000018,1395124,33.608390,-123.884648,17.3,17.517,32.850,42.913,1217.00,0.0,0.557,17.183,17.141, NaN,23.743,   NaN,17.47,1013.25,89.08,17.81,288.3,287.6,7.9,10.3,311.8,320.3,7.9,10.0,NaN, NaN,11.7,54.0,60.3,1121385620,1121385620,1,10.2,000019,000020,64.0,33.608415,-123.884731,10.32,NaN,NaN,17.521, NaN,NaN,NaN, NaN, NaN
20050715,000049,1395154,33.609051,-123.883118,17.3,17.518,32.857,42.923,1164.09,0.0,0.557,17.185,17.146, NaN,23.748,   NaN,17.50,1013.23,88.99,17.83,288.9,289.2,8.0,10.4,312.7,321.5,8.1,10.0,NaN, NaN,11.9,80.9,65.3,1121385651,1121385650,1,9.6,000050,000050,63.5,33.609056,-123.883260,10.12,NaN,NaN,17.522, NaN,NaN,NaN, NaN, NaN
20050715,000119,1395185,33.609651,-123.881688,17.2,17.518,32.852,42.917,1176.31,0.0,0.576,17.186,17.144, NaN,23.744,   NaN,17.51,1013.40,88.96,17.88,288.2,287.8,7.6,10.0,311.4,320.0,7.8,9.8,NaN, NaN,11.8,56.3,62.6,1121385680,1121385680,1,10.2,000079,000080,61.8,33.609663,-123.881770,10.05,NaN,NaN,17.522, NaN,NaN,NaN, NaN, NaN
20050715,000148,1395213,33.610316,-123.880186,17.2,17.518,32.853,42.918,1137.75,0.0,0.595,17.190,17.146, NaN,23.744,   NaN,17.52,1013.32,89.04,17.90,289.7,288.6,7.7,10.2,313.4,321.9,7.6,9.8,NaN, NaN,11.8,60.9,68.4,1121385710,1121385709,1,10.3,000109,000109,61.7,33.610303,-123.880321,10.15,NaN,NaN,17.522, NaN,NaN,NaN, NaN, NaN
20050715,000218,1395243,33.610996,-123.878698,17.2,17.518,32.859,42.924,1101.13,0.0,0.576,17.186,17.146, NaN,23.749,   NaN,17.49,1013.30,89.07,17.87,290.1,291.1,8.0,10.1,314.8,323.6,7.8,9.4,NaN, NaN,11.2,61.9,60.3,1121385740,1121385740,1,10.5,000139,000140,64.8,33.610993,-123.878778,10.32,NaN,NaN,17.522, NaN,NaN,NaN, NaN, NaN
20050715,000248,1395274,33.611603,-123.877181,17.2,17.518,32.855,42.920,1088.91,0.0,0.576,17.185,17.145, NaN,23.746,   NaN,17.48,1013.20,89.05,17.87,287.2,291.1,8.0,10.1,313.1,323.9,8.1,9.5,NaN, NaN,11.0,68.1,66.3,1121385770,1121385770,1,10.4,000169,000170,62.5,33.611606,-123.877258,10.27,NaN,NaN,17.522, NaN,NaN,NaN, NaN, NaN
20050715,000319,1395304,33.612261,-123.875673,17.0,17.523,32.857,42.927,1086.77,0.0,0.576,17.188,17.146, NaN,23.746,   NaN,17.47,1013.34,89.05,17.85,286.1,289.2,8.1,10.4,312.0,322.5,8.3,9.9,NaN, NaN,11.4,68.6,66.1,1121385800,1121385800,1,10.6,000199,000200,62.5,33.612268,-123.875751,10.19,NaN,NaN,17.527, NaN,NaN,NaN, NaN, NaN
20050715,000348,1395334,33.612915,-123.874136,17.2,17.518,32.862,42.929,1087.54,0.0,0.576,17.186,17.146, NaN,23.752,   NaN,17.48,1013.38,88.95,17.84,286.8,289.8,8.0,10.3,311.9,322.8,8.2,9.8,NaN, NaN,10.8,71.1,66.9,1121385830,1121385829,1,10.5,000229,000229,63.5,33.612895,-123.874271,10.21,NaN,NaN,17.522, NaN,NaN,NaN, NaN, NaN
20050715,000418,1395364,33.613578,-123.872618,17.2,17.522,32.855,42.924,1100.66,0.0,0.576,17.190,17.148, NaN,23.745,   NaN,17.50,1013.37,89.01,17.84,288.1,289.8,8.1,10.5,313.1,323.3,8.1,9.9,NaN, NaN,11.5,62.6,60.1,1121385860,1121385860,1,10.2,000259,000260,63.6,33.613580,-123.872696,10.29,NaN,NaN,17.526, NaN,NaN,NaN, NaN, NaN
20050715,000448,1395393,33.614205,-123.871101,17.2,17.518,32.855,42.921,1136.32,0.0,0.576,17.192,17.148, NaN,23.746,   NaN,17.51,1013.38,89.05,17.89,292.0,291.8,8.1,10.3,316.4,324.2,7.8,9.6,NaN, NaN,11.6,49.4,59.4,1121385890,1121385890,1,10.4,000289,000290,61.1,33.614215,-123.871188,10.01,NaN,NaN,17.522, NaN,NaN,NaN, NaN, NaN
20050715,000519,1395425,33.614893,-123.869573,17.2,17.523,32.855,42.925,1174.00,0.0,0.576,17.191,17.149, NaN,23.745,   NaN,17.51,1013.36,89.21,17.89,291.7,292.0,7.9,10.3,314.5,324.5,7.7,9.7,NaN, NaN,10.6,81.8,59.6,1121385921,1121385920,1,10.0,000320,000320,64.8,33.614875,-123.869705,9.99,NaN,NaN,17.527, NaN,NaN,NaN, NaN, NaN
20050715,000549,1395454,33.615498,-123.868123,17.2,17.526,32.853,42.925,1178.88,0.0,0.576,17.193,17.152, NaN,23.742,   NaN,17.47,1013.28,89.12,17.87,293.5,292.3,7.6,10.3,314.5,324.6,7.4,9.6,NaN, NaN,11.7,71.2,65.1,1121385950,1121385950,1,10.5,000349,000350,63.8,33.615501,-123.868205,9.92,NaN,NaN,17.530, NaN,NaN,NaN, NaN, NaN
20050715,000618,1395484,33.616158,-123.866616,17.3,17.524,32.860,42.931,1208.81,0.0,0.576,17.195,17.153, NaN,23.748,   NaN,17.47,1013.37,89.22,17.85,290.6,291.1,7.9,10.2,314.1,322.8,7.7,9.6,NaN, NaN,11.3,64.9,62.6,1121385980,1121385979,1,10.2,000379,000379,62.6,33.616131,-123.866748,10.08,NaN,NaN,17.528, NaN,NaN,NaN, NaN, NaN
20050715,000649,1395515,33.616803,-123.865045,16.9,17.527,32.854,42.928,1233.37,0.0,0.576,17.199,17.155, NaN,23.743,   NaN,17.49,1013.31,89.08,17.87,289.8,290.2,8.0,9.9,314.3,321.6,7.9,9.5,NaN, NaN,12.2,80.0,68.9,1121386011,1121386010,1,10.0,000410,000410,61.8,33.616793,-123.865185,10.17,NaN,NaN,17.531, NaN,NaN,NaN, NaN, NaN
20050715,000719,1395545,33.617441,-123.863580,17.2,17.529,32.853,42.929,1272.79,0.0,0.576,17.198,17.159, NaN,23.742,   NaN,17.49,1013.32,89.02,17.86,290.1,289.5,7.8,10.1,314.4,322.4,7.7,9.6,NaN, NaN,10.4,46.2,60.3,1121386041,1121386040,1,10.0,000440,000440,64.7,33.617425,-123.863721,9.91,NaN,NaN,17.533, NaN,NaN,NaN, NaN, NaN
20050715,000749,1395575,33.618061,-123.862080,17.3,17.537,32.853,42.935,1236.41,0.0,0.576,17.203,17.162, NaN,23.740,   NaN,17.49,1013.21,88.83,17.85,291.9,292.6,8.1,10.2,317.8,326.0,7.8,9.4,NaN, NaN,11.7,67.5,70.5,1121386071,1121386070,1,10.4,000470,000470,64.4,33.618045,-123.862205,9.96,NaN,NaN,17.541, NaN,NaN,NaN, NaN, NaN
20050715,000819,1395605,33.618700,-123.860571,17.3,17.538,32.860,42.945,1198.09,0.0,0.557,17.205,17.164, NaN,23.745,   NaN,17.50,1013.27,88.79,17.88,293.9,292.2,8.2,10.2,319.3,325.3,7.8,9.6,NaN, NaN,11.0,42.0,66.2,1121386101,1121386100,1,9.9,000500,000500,64.1,33.618670,-123.860693,10.22,NaN,NaN,17.542, NaN,NaN,NaN, NaN, NaN
20050715,000848,1395634,33.619285,-123.859120,17.3,17.540,32.854,42.939,1233.28,0.0,0.576,17.205,17.166, NaN,23.740,   NaN,17.53,1013.25,88.72,17.87,288.8,290.4,8.3,10.8,315.5,325.3,8.2,10.3,NaN, NaN,11.3,75.6,72.7,1121386130,1121386130,1,10.4,000529,000530,62.5,33.619298,-123.859200,9.98,NaN,NaN,17.544, NaN,NaN,NaN, NaN, NaN
20050715,000919,1395664,33.619948,-123.857565,17.2,17.541,32.858,42.944,1328.31,0.0,0.576,17.208,17.166, NaN,23.743,   NaN,17.49,1013.33,88.48,17.86,288.6,290.0,8.3,10.2,315.3,323.5,8.3,9.8,NaN, NaN,11.4,64.9,75.2,1121386161,1121386160,1,10.1,000560,000560,60.8,33.619935,-123.857700,10.22,NaN,NaN,17.545, NaN,NaN,NaN, NaN, NaN
20050715,000949,1395695,33.620601,-123.856160,17.3,17.545,32.857,42.948,1400.05,0.0,0.576,17.208,17.169, NaN,23.741,   NaN,17.53,1013.19,88.52,17.91,287.5,287.7,8.6,10.4,314.8,321.5,8.6,10.0,NaN, NaN,11.3,72.3,68.9,1121386190,1121386190,1,9.6,000589,000590,64.3,33.620595,-123.856236,10.00,NaN,NaN,17.549, NaN,NaN,NaN, NaN, NaN
20050715,001019,1395725,33.621245,-123.854600,17.2,17.545,32.856,42.947,1819.91,0.0,0.576,17.210,17.172, NaN,23.741,   NaN,17.54,1013.25,88.49,17.94,287.0,286.1,8.2,10.4,312.7,320.1,8.3,10.2,NaN, NaN,10.1,79.6,67.9,1121386221,1121386221,1,10.3,000620,000621,62.8,33.621236,-123.854673,10.12,NaN,NaN,17.549, NaN,NaN,NaN, NaN, NaN
20050715,001049,1395755,33.621863,-123.853066,17.3,17.545,32.853,42.943,1466.81,0.0,0.557,17.214,17.172, NaN,23.738,   NaN,17.54,1013.24,88.44,17.93,290.5,290.8,7.5,9.9,312.6,322.6,7.5,9.5,NaN, NaN,11.0,43.3,63.9,1121386251,1121386250,1,10.0,000650,000650,63.3,33.621845,-123.853188,10.07,NaN,NaN,17.549, NaN,NaN,NaN, NaN, NaN
20050715,001119,1395785,33.622515,-123.851560,16.8,17.548,32.855,42.949,1324.29,0.0,0.557,17.219,17.176, NaN,23.739,   NaN,17.52,1013.21,88.60,17.93,290.4,289.4,8.0,10.2,314.4,322.2,7.8,9.7,NaN, NaN,11.3,49.4,57.0,1121386281,1121386280,1,10.3,000680,000680,63.3,33.622491,-123.851685,9.95,NaN,NaN,17.552, NaN,NaN,NaN, NaN, NaN
20050715,001148,1395814,33.623121,-123.850116,17.3,17.549,32.856,42.951,1293.48,0.0,0.576,17.214,17.174, NaN,23.740,   NaN,17.48,1013.21,88.51,17.91,286.4,286.1,8.1,10.4,312.5,320.4,8.3,10.2,NaN, NaN,11.6,77.0,67.4,1121386310,1121386310,1,10.1,000709,000710,64.3,33.623118,-123.850191,10.01,NaN,NaN,17.553, NaN,NaN,NaN, NaN, NaN
20050715,001219,1395845,33.623741,-123.848513,17.3,17.547,32.858,42.952,1412.21,0.0,0.557,17.215,17.175, NaN,23.742,   NaN,17.53,1013.25,88.62,17.91,284.4,286.4,7.3,10.0,307.6,319.5,8.0,10.0,NaN, NaN,11.1,65.7,69.7,1121386341,1121386341,1,10.7,000740,000741,61.8,33.623756,-123.848590,10.40,NaN,NaN,17.551, NaN,NaN,NaN, NaN, NaN
20050715,001249,1395875,33.624358,-123.847083,17.1,17.547,32.858,42.951,1245.66,0.0,0.576,17.215,17.176, NaN,23.742,   NaN,17.53,1013.23,88.67,17.91,287.5,286.6,7.3,10.0,308.9,319.2,7.7,9.9,NaN, NaN,13.9,52.5,58.3,1121386370,1121386370,1,10.4,000769,000770,61.5,33.624381,-123.847165,10.14,NaN,NaN,17.551, NaN,NaN,NaN, NaN, NaN
20050715,001319,1395905,33.625011,-123.845525,17.3,17.551,32.864,42.961,1168.00,0.0,0.576,17.215,17.174, NaN,23.745,   NaN,17.51,1013.21,88.71,17.91,287.7,287.5,7.2,10.1,308.1,320.2,7.6,9.8,NaN, NaN,14.1,75.8,73.6,1121386401,1121386400,1,10.2,000800,000800,63.7,33.625020,-123.845661,10.04,NaN,NaN,17.555, NaN,NaN,NaN, NaN, NaN
20050715,001349,1395935,33.625650,-123.843996,17.1,17.551,32.879,42.979,1137.16,0.0,0.576,17.215,17.175, NaN,23.756,   NaN,17.51,1013.13,88.88,17.89,284.7,287.5,7.0,9.6,305.5,319.0,7.7,9.5,NaN, NaN,14.4,62.1,70.4,1121386431,1121386430,1,10.3,000830,000830,61.6,33.625650,-123.844130,10.11,NaN,NaN,17.555, NaN,NaN,NaN, NaN, NaN
20050715,001419,1395964,33.626290,-123.842483,17.3,17.548,32.868,42.964,1119.51,0.0,0.576,17.217,17.178, NaN,23.749,   NaN,17.49,1013.19,88.95,17.89,285.6,288.0,7.2,9.5,307.6,318.9,7.8,9.4,NaN, NaN,15.1,57.8,65.4,1121386461,1121386460,1,10.2,000860,000860,64.1,33.626296,-123.842613,10.14,NaN,NaN,17.552, NaN,NaN,NaN, NaN, NaN
20050715,001449,1395994,33.626910,-123.840951,17.3,17.548,32.868,42.963,1086.78,0.0,0.576,17.217,17.175, NaN,23.749,   NaN,17.49,1013.23,89.00,17.88,286.5,287.8,7.6,9.3,310.6,318.2,8.0,9.3,NaN, NaN,14.2,70.6,72.7,1121386491,1121386490,1,10.5,000890,000890,63.8,33.626925,-123.841085,10.13,NaN,NaN,17.552, NaN,NaN,NaN, NaN, NaN
20050715,001519,1396025,33.627535,-123.839506,17.1,17.549,32.862,42.958,1097.70,0.0,0.576,17.215,17.175, NaN,23.744,   NaN,17.46,1013.16,88.93,17.83,287.3,288.1,7.6,9.7,311.3,319.9,7.8,9.5,NaN, NaN,12.9,54.0,58.5,1121386520,1121386520,1,10.1,000919,000920,62.1,33.627555,-123.839600,10.01,NaN,NaN,17.553, NaN,NaN,NaN, NaN, NaN
20050715,001549,1396055,33.628191,-123.837966,17.2,17.551,32.864,42.961,1112.31,0.0,0.595,17.215,17.178, NaN,23.745,   NaN,17.45,1013.11,88.75,17.82,288.8,286.8,8.1,10.4,314.0,320.5,8.1,10.1,NaN, NaN,13.7,41.9,51.3,1121386551,1121386551,1,10.2,000950,000951,64.5,33.628225,-123.838055,10.09,NaN,NaN,17.555, NaN,NaN,NaN, NaN, NaN
20050715,001618,1396083,33.628805,-123.836518,17.0,17.549,32.867,42.964,1166.26,0.0,0.576,17.217,17.178, NaN,23.748,   NaN,17.49,1013.11,88.52,17.83,286.2,286.2,8.0,10.4,310.7,319.9,8.3,10.3,NaN, NaN,13.7,62.3,62.7,1121386580,1121386580,1,10.6,000979,000980,63.1,33.628833,-123.836598,10.14,NaN,NaN,17.553, NaN,NaN,NaN, NaN, NaN
20050715,001649,1396115,33.629456,-123.834975,16.9,17.554,32.863,42.964,1111.51,0.0,0.576,17.220,17.178, NaN,23.744,   NaN,17.55,1013.13,88.49,17.88,287.1,288.3,7.0,9.7,308.3,320.4,7.4,9.5,NaN, NaN,13.5,52.9,57.5,1121386611,1121386611,1,10.5,001010,001011,62.3,33.629478,-123.835056,10.16,NaN,NaN,17.558, NaN,NaN,NaN, NaN, NaN
20050715,001719,1396144,33.630088,-123.833528,17.3,17.559,32.864,42.969,1190.65,0.0,0.595,17.224,17.180, NaN,23.743,   NaN,17.54,1013.09,88.38,17.90,288.9,288.2,7.7,9.7,312.3,319.4,7.7,9.4,NaN, NaN,14.8,68.3,65.6,1121386640,1121386640,1,10.3,001039,001040,63.8,33.630101,-123.833605,10.18,NaN,NaN,17.563, NaN,NaN,NaN, NaN, NaN
20050715,001749,1396174,33.630750,-123.831966,17.1,17.558,32.873,42.979,1091.20,0.0,0.576,17.227,17.183, NaN,23.750,   NaN,17.48,1012.99,88.22,17.86,289.5,285.7,8.0,10.5,313.5,319.3,7.9,10.4,NaN, NaN,14.6,62.3,61.1,1121386671,1121386671,1,10.2,001070,001071,63.6,33.630758,-123.832051,10.19,NaN,NaN,17.562, NaN,NaN,NaN, NaN, NaN
20050715,001819,1396205,33.631373,-123.830520,17.4,17.562,32.863,42.970,1048.38,0.0,0.576,17.226,17.183, NaN,23.741,   NaN,17.54,1013.05,88.40,17.86,288.4,284.4,7.9,10.5,312.0,318.2,7.9,10.4,NaN, NaN,13.4,51.4,56.3,1121386700,1121386700,1,10.0,001099,001100,61.9,33.631386,-123.830598,10.18,NaN,NaN,17.566, NaN,NaN,NaN, NaN, NaN
20050715,001849,1396235,33.632005,-123.828968,16.9,17.563,32.857,42.965,1012.41,0.0,0.576,17.226,17.183, NaN,23.737,   NaN,17.48,1013.15,88.13,17.86,282.9,282.3,7.5,11.2,305.6,318.8,8.2,11.3,NaN, NaN,13.8,52.1,53.2,1121386731,1121386730,1,10.3,001130,001130,63.8,33.631993,-123.829098,9.89,NaN,NaN,17.567, NaN,NaN,NaN, NaN, NaN
20050715,001919,1396265,33.632615,-123.827526,17.4,17.563,32.907,43.023,994.01,0.0,0.576,17.229,17.188, NaN,23.775,   NaN,17.55,1013.07,88.41,17.87,282.5,284.5,6.6,10.5,301.0,318.8,7.5,10.5,NaN, NaN,12.7,53.6,58.2,1121386760,1121386760,1,10.0,001159,001160,64.3,33.632628,-123.827618,10.35,NaN,NaN,17.567, NaN,NaN,NaN, NaN, NaN
20050715,001949,1396294,33.633241,-123.825938,17.2,17.564,32.906,43.023,988.21,0.0,0.576,17.231,17.191, NaN,23.774,   NaN,17.52,1013.10,88.31,17.91,284.1,284.2,7.4,9.8,307.0,316.5,7.9,9.9,NaN, NaN,13.7,57.5,63.9,1121386791,1121386791,1,10.0,001190,001191,62.3,33.633265,-123.826033,10.12,NaN,NaN,17.568, NaN,NaN,NaN, NaN, NaN
20050715,002019,1396324,33.633886,-123.824456,17.3,17.570,32.905,43.028,1025.19,0.0,0.576,17.234,17.193, NaN,23.772,   NaN,17.52,1013.14,88.55,17.88,280.3,283.0,7.5,9.7,305.0,315.5,8.4,10.0,NaN, NaN,14.3,89.8,64.1,1121386821,1121386820,1,9.8,001220,001220,65.0,33.633888,-123.824591,10.09,NaN,NaN,17.574, NaN,NaN,NaN, NaN, NaN
20050715,002049,1396355,33.634505,-123.822940,17.4,17.567,32.906,43.026,1044.21,0.0,0.576,17.238,17.197, NaN,23.773,   NaN,17.50,1013.11,88.55,17.89,286.3,284.0,7.6,10.0,309.2,316.7,8.0,10.1,NaN, NaN,14.5,64.1,69.0,1121386851,1121386851,1,10.5,001250,001251,61.6,33.634516,-123.823020,10.11,NaN,NaN,17.571, NaN,NaN,NaN, NaN, NaN
20050715,002119,1396385,33.635161,-123.821456,17.3,17.570,32.908,43.031,1068.26,0.0,0.595,17.240,17.199, NaN,23.774,   NaN,17.42,1013.05,88.38,17.80,283.0,283.5,7.6,10.1,307.4,316.9,8.2,10.1,NaN, NaN,13.4,65.6,61.1,1121386881,1121386881,1,9.5,001280,001281,64.4,33.635175,-123.821543,10.15,NaN,NaN,17.574, NaN,NaN,NaN, NaN, NaN
20050715,002149,1396415,33.635795,-123.819943,17.2,17.576,32.905,43.032,1051.05,0.0,0.576,17.238,17.196, NaN,23.770,   NaN,17.45,1013.07,88.19,17.80,283.0,284.0,7.9,10.3,308.4,318.0,8.5,10.3,NaN, NaN,13.8,38.5,49.9,1121386911,1121386911,1,10.5,001310,001311,63.3,33.635826,-123.820031,10.19,NaN,NaN,17.580, NaN,NaN,NaN, NaN, NaN
20050715,002219,1396445,33.636453,-123.818390,17.1,17.575,32.905,43.032,1074.29,0.0,0.576,17.239,17.198, NaN,23.771,   NaN,17.53,1013.06,88.08,17.85,287.1,288.2,7.7,10.2,310.6,321.3,7.9,9.8,NaN, NaN,14.3,65.9,68.8,1121386941,1121386941,1,10.1,001341,001341,64.0,33.636453,-123.818525,10.08,NaN,NaN,17.579, NaN,NaN,NaN, NaN, NaN
20050715,002249,1396474,33.637076,-123.816933,17.2,17.568,32.916,43.039,1084.70,0.0,0.576,17.239,17.198, NaN,23.781,   NaN,17.50,1013.07,87.86,17.85,291.4,290.4,8.1,10.2,316.6,323.8,7.9,9.7,NaN, NaN,13.9,57.9,58.9,1121386971,1121386971,1,9.7,001370,001371,64.1,33.637096,-123.817020,10.08,NaN,NaN,17.572, NaN,NaN,NaN, NaN, NaN
20050715,002319,1396504,33.637711,-123.815430,17.2,17.571,32.912,43.037,1092.88,0.0,0.576,17.239,17.195, NaN,23.777,   NaN,17.52,1013.05,88.03,17.86,286.7,286.1,8.0,10.3,312.5,320.3,8.2,10.2,NaN, NaN,14.1,68.9,65.3,1121387001,1121387001,1,10.3,001400,001401,64.1,33.637726,-123.815508,10.18,NaN,NaN,17.575, NaN,NaN,NaN, NaN, NaN
20050715,002349,1396535,33.638331,-123.813905,17.4,17.569,32.914,43.037,1095.63,0.0,0.576,17.239,17.196, NaN,23.779,   NaN,17.52,1012.99,88.16,17.91,285.0,288.0,7.7,9.9,309.1,319.9,8.2,9.7,NaN, NaN,13.8,72.2,70.4,1121387031,1121387030,1,10.3,001430,001430,64.2,33.638330,-123.814035,10.12,NaN,NaN,17.573, NaN,NaN,NaN, NaN, NaN
20050715,002419,1396565,33.638976,-123.812430,17.4,17.573,32.909,43.035,1057.05,0.0,0.595,17.239,17.197, NaN,23.774,   NaN,17.52,1013.02,88.37,17.90,289.5,289.1,7.5,9.6,311.8,320.2,7.7,9.4,NaN, NaN,14.1,71.3,61.3,1121387061,1121387060,1,9.9,001460,001460,62.8,33.638971,-123.812566,10.16,NaN,NaN,17.577, NaN,NaN,NaN, NaN, NaN
20050715,002449,1396595,33.639623,-123.810900,17.3,17.572,32.914,43.041,1023.95,0.0,0.576,17.239,17.198, NaN,23.779,   NaN,17.48,1013.05,88.40,17.90,290.2,286.8,7.5,9.5,311.5,317.4,7.5,9.4,NaN, NaN,14.3,43.1,66.0,1121387091,1121387090,1,10.6,001490,001490,61.8,33.639606,-123.811033,10.20,NaN,NaN,17.576, NaN,NaN,NaN, NaN, NaN
20050715,002519,1396625,33.640261,-123.809395,17.2,17.571,32.915,43.040,1002.62,0.0,0.595,17.242,17.199, NaN,23.779,   NaN,17.51,1013.03,88.76,17.92,290.6,287.5,7.3,9.5,311.9,318.3,7.3,9.4,NaN, NaN,15.0,55.7,61.1,1121387121,1121387121,1,10.1,001520,001521,64.1,33.640276,-123.809478,10.12,NaN,NaN,17.575, NaN,NaN,NaN, NaN, NaN
20050715,002549,1396654,33.640926,-123.807878,17.3,17.572,32.908,43.033,1023.27,0.0,0.576,17.242,17.201, NaN,23.774,   NaN,17.50,1013.02,88.88,17.86,290.5,289.9,7.6,9.9,312.9,321.8,7.5,9.4,NaN, NaN,14.3,61.7,55.7,1121387151,1121387150,1,10.2,001550,001550,64.0,33.640911,-123.808008,10.11,NaN,NaN,17.576, NaN,NaN,NaN, NaN, NaN
20050715,002619,1396684,33.641543,-123.806355,17.1,17.576,32.910,43.039,1043.21,0.0,0.595,17.244,17.201, NaN,23.774,   NaN,17.47,1013.07,89.08,17.88,287.7,287.9,7.6,10.2,311.2,321.2,7.9,10.0,NaN, NaN,13.7,76.9,65.7,1121387181,1121387181,1,9.9,001580,001581,63.3,33.641543,-123.806433,10.09,NaN,NaN,17.580, NaN,NaN,NaN, NaN, NaN
20050715,002649,1396715,33.642193,-123.804830,17.1,17.577,32.911,43.042,1074.85,0.0,0.595,17.246,17.204, NaN,23.775,   NaN,17.49,1012.99,89.38,17.90,288.2,287.6,7.2,9.5,309.0,318.1,7.5,9.4,NaN, NaN,14.2,52.1,61.7,1121387211,1121387211,1,10.4,001610,001611,62.5,33.642200,-123.804910,10.14,NaN,NaN,17.581, NaN,NaN,NaN, NaN, NaN
20050715,002720,1396745,33.642830,-123.803250,17.4,17.580,32.908,43.041,1045.20,0.0,0.576,17.246,17.204, NaN,23.772,   NaN,17.48,1013.11,89.66,17.91,287.9,288.4,7.2,9.6,309.1,319.2,7.6,9.5,NaN, NaN,15.8,55.0,70.0,1121387241,1121387241,1,10.5,001641,001641,61.6,33.642825,-123.803390,10.27,NaN,NaN,17.584, NaN,NaN,NaN, NaN, NaN
20050715,002749,1396775,33.643468,-123.801798,17.3,17.582,32.911,43.046,1065.11,0.0,0.595,17.246,17.204, NaN,23.774,   NaN,17.48,1013.03,89.97,17.90,289.7,291.1,7.0,9.0,309.3,319.3,7.2,8.6,NaN, NaN,14.1,61.8,64.0,1121387271,1121387271,1,9.9,001670,001671,63.8,33.643480,-123.801886,10.10,NaN,NaN,17.586, NaN,NaN,NaN, NaN, NaN
20050715,002819,1396804,33.644116,-123.800280,17.3,17.582,32.913,43.048,1045.48,0.0,0.595,17.246,17.204, NaN,23.775,   NaN,17.46,1013.08,90.24,17.90,291.8,291.8,7.0,8.9,311.0,320.2,7.0,8.5,NaN, NaN,14.8,66.0,64.4,1121387301,1121387301,1,10.0,001700,001701,63.3,33.644118,-123.800365,10.17,NaN,NaN,17.586, NaN,NaN,NaN, NaN, NaN
20050715,002849,1396834,33.644753,-123.798775,17.3,17.578,32.919,43.051,1018.34,0.0,0.595,17.249,17.208, NaN,23.781,   NaN,17.43,1013.04,90.47,17.88,288.8,291.6,7.0,9.0,308.5,319.9,7.3,8.6,NaN, NaN,13.1,65.9,62.4,1121387331,1121387330,1,10.1,001730,001730,63.7,33.644743,-123.798913,10.19,NaN,NaN,17.582, NaN,NaN,NaN, NaN, NaN
20050715,002919,1396865,33.645400,-123.797246,17.5,17.579,32.922,43.056,989.85,0.0,0.595,17.249,17.206, NaN,23.783,   NaN,17.43,1013.04,90.77,17.84,289.1,288.4,7.2,9.2,309.2,317.5,7.4,9.1,NaN, NaN,14.4,71.2,67.1,1121387361,1121387360,1,10.5,001760,001760,61.5,33.645383,-123.797381,10.00,NaN,NaN,17.583, NaN,NaN,NaN, NaN, NaN
20050715,002949,1396895,33.646043,-123.795728,17.4,17.583,32.910,43.046,995.86,0.0,0.595,17.249,17.208, NaN,23.772,   NaN,17.40,1013.02,90.91,17.83,289.5,288.4,7.0,9.3,309.0,318.2,7.3,9.2,NaN, NaN,13.9,81.3,62.1,1121387391,1121387390,1,10.3,001790,001790,62.6,33.646036,-123.795878,10.20,NaN,NaN,17.587, NaN,NaN,NaN, NaN, NaN
20050715,003020,1396925,33.646690,-123.794216,17.3,17.583,32.914,43.051,1031.56,0.0,0.595,17.252,17.211, NaN,23.776,   NaN,17.38,1012.94,90.92,17.78,284.7,287.3,7.2,9.8,306.9,319.0,7.7,9.6,NaN, NaN,12.7,52.8,60.6,1121387421,1121387421,1,9.7,001820,001821,64.3,33.646696,-123.794316,10.05,NaN,NaN,17.587, NaN,NaN,NaN, NaN, NaN
20050715,003049,1396955,33.647328,-123.792690,17.0,17.585,32.910,43.047,1048.66,0.0,0.595,17.253,17.211, NaN,23.772,   NaN,17.41,1013.02,91.08,17.77,285.1,286.1,7.1,9.5,306.6,317.5,7.5,9.4,NaN, NaN,14.8,60.3,57.5,1121387451,1121387450,1,10.4,001850,001850,64.8,33.647316,-123.792830,10.26,NaN,NaN,17.589, NaN,NaN,NaN, NaN, NaN
20050715,003119,1396984,33.647965,-123.791170,17.4,17.591,32.909,43.052,970.36,0.0,0.595,17.257,17.216, NaN,23.770,   NaN,17.39,1012.92,91.05,17.77,285.0,288.0,6.8,9.0,304.8,316.8,7.4,8.9,NaN, NaN,12.7,62.3,61.3,1121387481,1121387481,1,9.6,001880,001881,64.8,33.647963,-123.791258,10.01,NaN,NaN,17.595, NaN,NaN,NaN, NaN, NaN
20050715,003149,1397014,33.648611,-123.789663,17.3,17.590,32.913,43.056,959.03,0.0,0.595,17.257,17.215, NaN,23.773,   NaN,17.37,1012.96,90.87,17.75,283.9,289.1,7.1,9.4,305.8,319.2,7.8,9.2,NaN, NaN,14.5,69.7,65.2,1121387511,1121387511,1,10.2,001910,001911,65.0,33.648613,-123.789756,10.02,NaN,NaN,17.594, NaN,NaN,NaN, NaN, NaN
20050715,003219,1397045,33.649256,-123.788148,17.2,17.596,32.910,43.058,927.34,0.0,0.595,17.262,17.218, NaN,23.770,   NaN,17.33,1012.94,90.63,17.66,285.3,287.4,7.9,10.1,310.0,320.1,8.2,9.8,NaN, NaN,13.6,57.4,60.3,1121387541,1121387541,1,9.9,001940,001941,63.4,33.649258,-123.788241,10.17,NaN,NaN,17.600, NaN,NaN,NaN, NaN, NaN
20050715,003250,1397075,33.649893,-123.786608,17.3,17.596,32.911,43.059,886.67,0.0,0.595,17.262,17.218, NaN,23.771,   NaN,17.38,1012.99,90.42,17.69,287.5,285.6,7.2,9.8,307.8,316.7,7.5,9.8,NaN, NaN,13.6,75.2,68.7,1121387571,1121387571,1,10.2,001970,001971,63.1,33.649901,-123.786705,10.42,NaN,NaN,17.600, NaN,NaN,NaN, NaN, NaN
20050715,003319,1397105,33.650540,-123.785095,17.0,17.596,32.913,43.062,859.40,0.0,0.595,17.263,17.220, NaN,23.772,   NaN,17.39,1012.97,89.97,17.67,282.8,283.3,7.2,9.8,304.6,315.5,8.0,10.0,NaN, NaN,13.7,70.3,67.8,1121387601,1121387601,1,10.0,002000,002001,63.3,33.650533,-123.785188,10.24,NaN,NaN,17.600, NaN,NaN,NaN, NaN, NaN
20050715,003349,1397135,33.651181,-123.783573,17.1,17.598,32.916,43.067,828.28,0.0,0.595,17.263,17.221, NaN,23.774,   NaN,17.44,1012.95,89.74,17.75,283.7,284.6,7.0,10.0,305.4,317.7,7.7,10.0,NaN, NaN,13.2,63.1,60.5,1121387631,1121387631,1,10.5,002030,002031,64.0,33.651186,-123.783666,10.26,NaN,NaN,17.602, NaN,NaN,NaN, NaN, NaN
20050715,003420,1397166,33.651821,-123.782000,17.1,17.598,32.913,43.063,806.70,0.0,0.614,17.263,17.220, NaN,23.771,   NaN,17.45,1012.85,89.54,17.75,282.5,284.9,6.8,9.7,303.9,317.1,7.6,9.8,NaN, NaN,12.5,51.3,59.9,1121387661,1121387661,1,10.2,002061,002061,62.5,33.651801,-123.782143,10.30,NaN,NaN,17.602, NaN,NaN,NaN, NaN, NaN
20050715,003449,1397195,33.652448,-123.780563,16.9,17.597,32.915,43.065,781.49,0.0,0.595,17.263,17.221, NaN,23.773,   NaN,17.44,1012.95,89.26,17.76,283.1,285.9,7.0,9.6,304.9,317.5,7.7,9.6,NaN, NaN,13.6,68.0,57.2,1121387691,1121387690,1,10.3,002090,002090,64.8,33.652431,-123.780703,10.08,NaN,NaN,17.601, NaN,NaN,NaN, NaN, NaN
20050715,003521,1397227,33.653096,-123.778998,17.1,17.596,32.916,43.065,772.09,0.0,0.614,17.262,17.222, NaN,23.774,   NaN,17.46,1012.90,89.19,17.75,284.7,286.7,7.4,9.8,308.6,319.4,7.9,9.7,NaN, NaN,13.1,61.3,61.9,1121387722,1121387722,1,10.3,002121,002122,63.1,33.653095,-123.779088,10.14,NaN,NaN,17.600, NaN,NaN,NaN, NaN, NaN
20050715,003550,1397255,33.653728,-123.777465,17.2,17.600,32.912,43.065,757.70,0.0,0.595,17.260,17.219, NaN,23.770,   NaN,17.47,1012.99,89.05,17.78,283.6,286.5,7.4,9.6,307.4,318.0,8.0,9.6,NaN, NaN,13.9,59.3,68.9,1121387752,1121387751,1,10.8,002151,002151,62.8,33.653705,-123.777610,10.25,NaN,NaN,17.604, NaN,NaN,NaN, NaN, NaN
20050715,003620,1397286,33.654390,-123.775975,17.3,17.603,32.910,43.065,734.62,0.0,0.614,17.261,17.220, NaN,23.768,   NaN,17.44,1012.91,88.91,17.77,283.4,286.6,7.3,9.3,306.0,316.7,7.9,9.3,NaN, NaN,13.0,59.1,58.2,1121387782,1121387781,1,9.4,002181,002181,64.6,33.654366,-123.776113,10.08,NaN,NaN,17.607, NaN,NaN,NaN, NaN, NaN